FENGYUN 1C DEB *, 47101

Orbit data source: Space-Track

FENGYUN 1C DEB *, 47101 is space debris in SSO originally from a launch on Mon, 10 May 1999 UTC launched from the Taiyaun Space Center, China (TSC). Fengyun 1C debris stems from the Chinese weather satellite Fengyun-1C, which was intentionally destroyed by a Chinese anti-satellite missile in 2007. This event dramatically increased the amount of space debris, with thousands of trackable fragments posing hazards to satellites and human spaceflight. The Fengyun 1C debris cloud has become a focal point in discussions about space sustainability and the need for international regulations to prevent the creation of new debris.

Loading next visibility...
Identifier
47101, 1999-025FBZ
Orbit
SSO
Country
Flag of CNCN / PRC
Related business
Manufacturer
Unknown
Mission
Spacecraft
Bus & Motor
Unknown
Mass
Unknown
Launch date (UTC)
1999-05-10 (27 years ago)
Launch vehicle
Unknown
Launch site
Taiyaun Space Center, China (TSC)
Object type
Payload
Rocket body
Debris
Shape & HBR
Unknown shape, 0.1 m
Radar Cross Section
Small (<0.1 m²)

Expand to show TLE details & history
Last TLE update: 2 weeks ago

TLE from 2 weeks ago
0 FENGYUN 1C DEB *
1 47101U 99025FBZ 26154.38470621  .00006485  00000-0  28349-2 0  9998
2 47101  98.8119 219.4305 0101498 282.0188  76.9628 14.21407888371111
Epoch: 2026-06-03T09:13Z
TLE epoch observation values (Epoch: 2026-06-03T09:13:58.616Z)
Latitude
-0.00001°
Longitude
-170.90782°
Altitude
807.729 km
Speed
7.458 km/s
True Right ascension
14h 37m 43s
True Declination
0° 00' 00"
Sunlit
Object was in full shadow at epoch
Visualization orbit readout
Latitude
Unknown
Longitude
Unknown
Altitude
Unknown
Speed
Unknown
Apparent Right ascension
Unknown
Apparent Declination
Unknown
Sunlit
N/A
Visualization observer readout
Local Sidereal Time
01:33:10
Azimuth
Unknown
Elevation
Unknown
Doppler factor
Unknown
Orbital elements
Apogee altitude
890.793 km
Perigee altitude
744.72 km
Semi-major axis
7,195.894 km
Eccentricity
0.01015
Inclination
98.8119°
RAAN
219.4305°
Arg. of periapsis
282.0188°
True anomaly
78.09908°
Mean anomaly
76.9628°
Eccentric anomaly
77.53062°
Mean motion
3.55563 °/min
Orbital period
101.25 mins
BSTAR
0.0028349
Loading maneuver chart data...
Computing Atmospheric mass density...

Documentation

Showing up to 5 results
|